#timestamp,LO_Frequency,Hit,StdDev 
1610643615.8,286047175.4,N
1610643635.6,286047173.2,N
1610643655.5,286047173.3,N
1610643675.3,286047170.9,N
1610643695.2,286047171.1,N
1610643715.9,286047171.7,N
1610643735.7,286047170.9,N
1610643755.6,286047173.1,N
1610643775.4,286047172.6,N
1610643795.3,286047172.9,N
1610643815.1,286047175.5,N
1610643816.0,286047175.5,N
1610643835.8,286047175.6,N
1610643855.7,286047172.9,N
1610643875.5,286047172.9,N
1610643895.3,286047176.8,N
1610643915.2,286047175.1,N
1610643935.0,286047172.5,N
1610643935.9,286047172.5,N
1610643955.8,286047173.5,N
1610643975.6,286047171.8,Y
1610643995.4,286047000.9,P
1610644015.3,286046999.9,N
1610644035.1,286047002.6,N
1610644055.9,286046999.8,N
1610644075.7,286047001.8,N
1610644095.5,286047002.2,N
1610644115.4,286047001.5,N
1610644135.2,286047001.8,N
1610644155.0,286047002.0,N
1610644156.0,286047002.0,N
1610644175.8,286047000.2,N
1610644195.6,286047000.2,N
1610644215.5,286047000.5,N
1610644235.3,286047002.5,N
1610644255.1,286047001.6,N
1610644275.9,286047002.0,N
1610644295.7,286047000.1,N
1610644315.6,286047002.2,N
1610644335.4,286047004.0,N
1610644355.2,286047004.2,N
1610644375.1,286046999.7,N
1610644376.0,286046999.7,N
1610644395.8,286046999.7,N
1610644415.7,286047002.4,N
1610644435.5,286047001.5,N
1610644455.3,286047002.8,N
1610644475.2,286047004.4,N
1610644495.9,286047002.2,N
1610644515.7,286047002.2,N
1610644535.6,286047002.6,N
1610644555.4,286046999.8,N
1610644575.3,286047000.2,N
1610644595.1,286047000.4,N
1610644596.0,286047000.4,N
1610644615.8,286047002.3,N
1610644635.7,286047002.6,N
1610644655.5,286047002.8,N
1610644675.3,286047002.3,N
1610644695.2,286047002.5,N
1610644715.0,286047001.4,N
1610644715.9,286047001.4,N
1610644735.8,286047001.4,N
1610644755.6,286047001.8,N
1610644775.4,286047002.3,N
1610644795.3,286047004.0,Y
1610644815.1,286047000.2,P
1610644835.8,286047000.9,N
1610644855.7,286046998.5,N
1610644875.5,286046998.4,N
1610644895.4,286046998.3,N
1610644915.2,286047000.5,N
1610644935.0,286046999.3,N
1610644935.9,286046999.3,N
1610644955.8,286046998.7,N
1610644975.6,286046998.8,N
1610644995.4,286047000.6,N
1610645015.3,286046999.8,N
1610645035.1,286046999.7,N
1610645055.9,286046999.7,N
1610645075.7,286047001.9,N
1610645095.5,286047000.5,N
1610645115.4,286047000.7,N
1610645135.2,286047001.0,N
1610645155.0,286047000.6,N
1610645155.9,286047000.6,N
1610645175.8,286046999.4,N
1610645195.6,286046999.8,N
1610645215.5,286047000.0,N
1610645235.3,286047002.6,N
1610645255.1,286047001.7,N
1610645275.9,286047002.1,N
1610645295.7,286047002.6,N
1610645315.5,286047003.8,Y
1610645335.4,286047002.8,P
1610645355.2,286047000.3,N
1610645375.1,286046999.9,N
1610645376.0,286046999.9,N
1610645395.8,286047000.0,N
1610645415.6,286046999.7,N
1610645435.5,286047000.6,N
1610645455.3,286046999.9,N
1610645475.1,286047002.2,N
1610645495.9,286047001.9,N
1610645515.7,286047002.5,N
1610645535.6,286047002.2,N
1610645555.4,286047000.6,N
1610645575.2,286046999.7,N
1610645595.1,286047002.4,N
1610645596.0,286047002.4,N
1610645615.8,286046999.8,N
1610645635.7,286046999.9,N
1610645655.5,286047002.2,N
1610645675.3,286047002.8,N
1610645695.2,286046999.7,N
1610645715.0,286046999.9,N
1610645715.9,286046999.9,N
1610645735.7,286047002.6,N
1610645755.6,286047002.5,N
1610645775.4,286046999.7,N
1610645795.3,286047001.9,N
1610645815.1,286047002.0,N
1610645835.8,286047001.8,N
1610645855.7,286047004.0,Y
1610645905.6,286047000.7,E
1610645915.5,286047001.2,N
1610645935.3,286046999.3,P
1610645955.1,286046998.9,N
1610645975.9,286047000.7,N
1610645995.7,286046999.9,N
1610646015.6,286047002.8,Y
1610646035.4,286047002.3,P
1610646055.3,286047000.5,N
1610646075.1,286047000.3,N
1610646076.0,286047000.3,N
1610646095.8,286047002.4,N
1610646115.7,286047000.9,N
1610646135.5,286046998.1,N
1610646155.3,286047002.4,N
1610646175.2,286047001.5,N
1610646195.0,286047001.9,N
1610646195.9,286047001.9,N
1610646245.8,286047001.5,E
1610646255.7,286047002.8,N
1610646305.6,286047001.0,E
1610646315.5,286046998.6,N
1610646335.3,286046998.3,P
1610646355.2,286046997.9,P
1610646375.0,286046997.0,Y
1610646375.9,286046997.0,P
1610646395.8,286046998.4,N
1610646415.6,286046998.1,P
1610646435.4,286047000.7,N
1610646455.3,286046998.4,N
1610646475.1,286046997.0,N
1610646495.8,286046996.7,N
1610646515.7,286046997.0,N
1610646535.5,286046999.5,N
1610646555.4,286046999.0,N
1610646575.2,286046998.7,N
1610646595.0,286046998.1,N
1610646595.9,286046998.1,N
1610646615.8,286047000.0,N
1610646635.6,286047000.8,N
1610646655.5,286047001.1,N
1610646675.3,286047000.3,N
1610646695.1,286047002.7,N
1610646715.9,286046999.8,N
1610646735.7,286047002.8,N
1610646755.6,286047000.2,N
1610646775.4,286047000.3,N
1610646795.2,286047000.9,N
1610646815.1,286047001.6,N
1610646816.0,286047001.6,N
1610646835.8,286047001.5,N
1610646855.7,286047002.2,N
1610646875.5,286047002.3,N
1610646895.3,286047004.4,N
1610646915.2,286047003.1,N
1610646935.0,286046999.7,N
1610646935.9,286046999.7,N
1610646955.8,286047002.5,N
1610646975.6,286047002.4,N
1610646995.4,286047002.5,N
1610647015.3,286047003.9,N
1610647035.1,286047002.4,N
1610647055.8,286046999.8,N
1610647075.7,286047000.0,N
1610647095.5,286047002.2,N
1610647115.4,286047001.0,N
1610647135.2,286047000.8,N
1610647155.0,286047003.9,N
1610647155.9,286047003.9,N
1610647175.8,286047004.8,Y
1610647195.6,286047001.8,P
